This demonstration page uses our WeatherBlox Daily Observations layout. Learn more.

Left ArrowRight Arrow

Hourly Observations for May 26, 2018

Temp ( °F °C ) Dew Point ( °F °C ) Humidity (%) Winds ( mph kmh ) Pressure ( in mb ) Visibility ( mi km ) Precip ( " mm )
12:53 am 00:53 Clear 61 16.1 47 8.3 60 60 W 7 11 29.69 1005 10 16 N/A
1:53 am 01:53 Clear 61 16.1 49 9.4 65 65 SE 6 9 29.68 1005 10 16 N/A
2:53 am 02:53 Partly Cloudy 62 16.7 49 9.4 62 62 S 6 9 29.67 1005 10 16 N/A
3:53 am 03:53 Mostly Clear 61 16.1 48 8.9 63 63 N N/A 29.66 1005 10 16 N/A
4:53 am 04:53 Clear 53 11.7 48 8.9 83 83 SSW 3 6 29.67 1005 10 16 N/A
5:53 am 05:53 Mostly Cloudy 59 15 50 10 72 72 W 7 11 29.73 1007 10 16 N/A
6:49 am 06:49 Partly Cloudy 64 18 52 11 64 64 WSW 9 15 29.65 1004 10 16 N/A
6:53 am 06:53 Mostly Sunny 63 17.2 51 10.6 65 65 WNW 12 19 29.68 1005 10 16 N/A
7:53 am 07:53 Sunny 63 17.2 53 11.7 70 70 NW 5 7 29.68 1005 10 16 N/A
8:53 am 08:53 Mostly Cloudy 68 20 54 12.2 61 61 WSW 12 19 29.72 1006 10 16 N/A
9:53 am 09:53 Sunny 73 22.8 52 11.1 48 48 SW 15 24 29.69 1005 10 16 N/A
10:53 am 10:53 Partly Cloudy 76 24.4 51 10.6 42 42 SW 10 17 29.68 1005 10 16 N/A
11:53 am 11:53 Sunny 80 26.7 50 10 35 35 VRB 7 11 29.67 1005 10 16 N/A
12:53 pm 12:53 Sunny 81 27.2 48 8.9 32 32 WSW 8 13 29.68 1005 10 16 N/A
1:53 pm 13:53 Mostly Sunny 84 28.9 47 8.3 27 27 SW 12 19 29.67 1005 10 16 N/A
2:17 pm 14:17 Partly Cloudy 84 28.9 46 7.8 27 27 SW 10 17 29.56 1001 10 16 N/A
2:53 pm 14:53 Sunny 84 28.9 46 7.8 27 27 WSW 12 19 29.66 1005 10 16 N/A
3:53 pm 15:53 Mostly Cloudy 84 28.9 48 8.9 29 29 NW 10 17 29.66 1005 10 16 N/A
4:53 pm 16:53 Sunny 81 27.2 50 10 34 34 WNW 17 28 29.69 1006 10 16 N/A
5:53 pm 17:53 Sunny 80 26.7 49 9.4 34 34 NW 14 22 29.70 1006 10 16 N/A
6:53 pm 18:53 Sunny 80 26.7 48 8.9 33 33 NW 15 24 29.70 1006 10 16 N/A
7:53 pm 19:53 Sunny 77 25 48 8.9 36 36 WNW 14 22 29.72 1007 10 16 N/A
8:53 pm 20:53 Sunny 74 23.3 48 8.9 40 40 NW 13 20 29.74 1007 10 16 N/A
9:53 pm 21:53 Clear 70 21.1 47 8.3 44 44 NW 12 19 29.78 1009 10 16 N/A
10:53 pm 22:53 Clear 65 18.3 47 8.3 52 52 NW 7 11 29.81 1010 10 16 N/A
11:53 pm 23:53 Clear 62 16.7 48 8.9 60 60 W 5 7 29.82 1010 10 16 N/A

Powered by AerisWeather